SWR447 EGLL-EDDF

Flight info

Callsign SWR447
Flight time 1h 4m
Altitude 35000
Route DET L6 DVR UL9 KONAN UL607 SPI T180 NIVNU T847 IMCOM IMCOM1A
Aircraft MD11/H-SDE1E2E3FGHIJ2J3J4J5M1RWXY/LB1D1

Departure

Time 2026-04-17 09:17
Airport London Heathrow Airport (EGLL)

Arrival

Time 2026-04-17 10:22
Airport Frankfurt Main Airport (EDDF)
Time Latitude Longitude Altitude Speed Heading
2026-04-17 08:21 51.46867 -0.44195 81 ft 0 kts 270°
2026-04-17 09:01 51.46867 -0.44175 81 ft 2 kts 270°
2026-04-17 09:01 51.46867 -0.44151 82 ft 2 kts 270°
2026-04-17 09:02 51.46867 -0.44127 82 ft 2 kts 270°
2026-04-17 09:02 51.46867 -0.44103 81 ft 2 kts 270°
2026-04-17 09:02 51.46866 -0.44079 82 ft 2 kts 298°
2026-04-17 09:02 51.46856 -0.44062 81 ft 2 kts 332°
2026-04-17 09:03 51.46842 -0.44056 82 ft 2 kts
2026-04-17 09:03 51.46827 -0.44058 82 ft 2 kts
2026-04-17 09:03 51.46812 -0.44058 82 ft 2 kts 360°
2026-04-17 09:03 51.46808 -0.44058 82 ft 1 kts 360°
2026-04-17 09:04 51.46839 -0.44058 82 ft 4 kts
2026-04-17 09:04 51.46856 -0.44058 82 ft 0 kts
2026-04-17 09:06 51.46857 -0.44058 81 ft 1 kts
2026-04-17 09:06 51.46890 -0.44056 81 ft 8 kts
2026-04-17 09:07 51.46978 -0.44052 81 ft 15 kts
2026-04-17 09:07 51.47068 -0.44055 81 ft 9 kts 359°
2026-04-17 09:07 51.47125 -0.44057 81 ft 0 kts 360°
2026-04-17 09:08 51.47137 -0.44058 81 ft 3 kts 360°
2026-04-17 09:08 51.47142 -0.44058 81 ft 0 kts 360°
2026-04-17 09:10 51.47143 -0.44058 81 ft 0 kts 360°
2026-04-17 09:11 51.47155 -0.44058 81 ft 3 kts 360°
2026-04-17 09:11 51.47181 -0.44058 82 ft 3 kts
2026-04-17 09:11 51.47240 -0.44059 82 ft 14 kts 359°
2026-04-17 09:11 51.47271 -0.44059 82 ft 0 kts
2026-04-17 09:12 51.47312 -0.44059 82 ft 15 kts
2026-04-17 09:12 51.47450 -0.44058 82 ft 16 kts
2026-04-17 09:12 51.47510 -0.43931 82 ft 15 kts 91°
2026-04-17 09:12 51.47496 -0.43807 82 ft 6 kts 117°
2026-04-17 09:13 51.47463 -0.43737 82 ft 9 kts 128°
2026-04-17 09:13 51.47446 -0.43635 81 ft 10 kts 89°
2026-04-17 09:13 51.47450 -0.43496 82 ft 15 kts 88°
2026-04-17 09:13 51.47472 -0.43310 82 ft 10 kts 52°
2026-04-17 09:14 51.47543 -0.43253 82 ft 13 kts
2026-04-17 09:14 51.47611 -0.43256 82 ft 3 kts 355°
2026-04-17 09:14 51.47641 -0.43266 82 ft 2 kts 342°
2026-04-17 09:14 51.47667 -0.43286 82 ft 1 kts 329°
2026-04-17 09:15 51.47674 -0.43293 82 ft 2 kts 326°
2026-04-17 09:15 51.47682 -0.43303 82 ft 3 kts 323°
2026-04-17 09:15 51.47729 -0.43371 82 ft 14 kts 315°
2026-04-17 09:15 51.47766 -0.43497 82 ft 11 kts 272°
2026-04-17 09:16 51.47766 -0.43506 82 ft 0 kts 271°
2026-04-17 09:16 51.47766 -0.43584 82 ft 18 kts 270°
2026-04-17 09:16 51.47761 -0.44253 82 ft 103 kts 269°
2026-04-17 09:17 51.47759 -0.45816 82 ft 174 kts 271°
2026-04-17 09:17 51.47762 -0.48036 274 ft 213 kts 267°
2026-04-17 09:17 51.47764 -0.50131 1715 ft 178 kts 267°
2026-04-17 09:17 51.47760 -0.52073 2653 ft 175 kts 260°
2026-04-17 09:18 51.47280 -0.53663 3584 ft 159 kts 223°
2026-04-17 09:18 51.46224 -0.54471 3888 ft 181 kts 192°
2026-04-17 09:18 51.44895 -0.54490 4139 ft 208 kts 178°
2026-04-17 09:18 51.43709 -0.54149 4298 ft 231 kts 172°
2026-04-17 09:19 51.43043 -0.53890 4428 ft 239 kts 170°
2026-04-17 09:19 51.41470 -0.52708 4885 ft 261 kts 147°
2026-04-17 09:19 51.40086 -0.50738 5671 ft 272 kts 139°
2026-04-17 09:19 51.38777 -0.48484 5812 ft 278 kts 136°
2026-04-17 09:20 51.37510 -0.46205 5842 ft 275 kts 136°
2026-04-17 09:20 51.36209 -0.43946 5898 ft 275 kts 137°
2026-04-17 09:20 51.34885 -0.41768 5928 ft 275 kts 139°
2026-04-17 09:20 51.33521 -0.39625 5933 ft 274 kts 140°
2026-04-17 09:21 51.32149 -0.37525 5941 ft 275 kts 140°
2026-04-17 09:21 51.30971 -0.35101 5959 ft 277 kts 117°
2026-04-17 09:21 51.30524 -0.32075 5988 ft 285 kts 92°
2026-04-17 09:21 51.30756 -0.28916 5982 ft 289 kts 78°
2026-04-17 09:22 51.31247 -0.25812 5959 ft 290 kts 79°
2026-04-17 09:22 51.31607 -0.22608 5956 ft 289 kts 86°
2026-04-17 09:22 51.31727 -0.19437 5963 ft 288 kts 92°
2026-04-17 09:22 51.31697 -0.16221 5963 ft 288 kts 95°
2026-04-17 09:23 51.31608 -0.12988 5968 ft 288 kts 95°
2026-04-17 09:23 51.31525 -0.09831 5970 ft 289 kts 95°
2026-04-17 09:23 51.31459 -0.06594 5960 ft 288 kts 94°
2026-04-17 09:23 51.31410 -0.03403 5963 ft 287 kts 94°
2026-04-17 09:24 51.31369 -0.00203 5968 ft 286 kts 93°
2026-04-17 09:24 51.31329 0.02961 6026 ft 293 kts 94°
2026-04-17 09:24 51.31287 0.06184 7224 ft 288 kts 94°
2026-04-17 09:24 51.31236 0.09356 8218 ft 294 kts 94°
2026-04-17 09:25 51.31174 0.12685 9215 ft 301 kts 94°
2026-04-17 09:25 51.31112 0.16044 10212 ft 307 kts 94°
2026-04-17 09:25 51.31059 0.19426 11207 ft 313 kts 93°
2026-04-17 09:25 51.31012 0.22906 12101 ft 323 kts 93°
2026-04-17 09:26 51.30953 0.26619 12633 ft 344 kts 94°
2026-04-17 09:26 51.30887 0.30486 13459 ft 355 kts 94°
2026-04-17 09:26 51.30824 0.34408 14375 ft 363 kts 94°
2026-04-17 09:26 51.30763 0.38457 15326 ft 368 kts 93°
2026-04-17 09:27 51.30701 0.42584 16265 ft 374 kts 93°
2026-04-17 09:27 51.30640 0.46713 17152 ft 380 kts 93°
2026-04-17 09:27 51.30554 0.50952 18056 ft 384 kts 94°
2026-04-17 09:27 51.30451 0.55209 18925 ft 389 kts 95°
2026-04-17 09:28 51.30229 0.59520 19738 ft 393 kts 100°
2026-04-17 09:28 51.29721 0.63759 20529 ft 396 kts 107°
2026-04-17 09:28 51.28939 0.68004 21309 ft 400 kts 112°
2026-04-17 09:28 51.28062 0.72242 22081 ft 405 kts 112°
2026-04-17 09:29 51.27196 0.76536 22819 ft 411 kts 111°
2026-04-17 09:29 51.26360 0.80916 23563 ft 416 kts 111°
2026-04-17 09:29 51.25541 0.85321 24290 ft 422 kts 110°
2026-04-17 09:29 51.24714 0.89797 25017 ft 427 kts 110°
2026-04-17 09:30 51.23862 0.94376 25744 ft 432 kts 110°
2026-04-17 09:30 51.23013 0.98928 26461 ft 436 kts 110°
2026-04-17 09:30 51.22140 1.03617 27297 ft 437 kts 110°
2026-04-17 09:30 51.21272 1.08280 28141 ft 438 kts 110°
2026-04-17 09:31 51.20410 1.12929 28994 ft 437 kts 110°
2026-04-17 09:31 51.19551 1.17565 29771 ft 437 kts 109°
2026-04-17 09:31 51.18705 1.22138 30552 ft 436 kts 109°
2026-04-17 09:31 51.17858 1.26733 31268 ft 436 kts 109°
2026-04-17 09:32 51.17036 1.31407 31935 ft 436 kts 107°
2026-04-17 09:32 51.16381 1.36051 32566 ft 436 kts 103°
2026-04-17 09:32 51.15925 1.40845 33153 ft 437 kts 97°
2026-04-17 09:32 51.15655 1.45619 33679 ft 437 kts 95°
2026-04-17 09:33 51.15443 1.50425 34203 ft 436 kts 95°
2026-04-17 09:33 51.15232 1.55250 34657 ft 436 kts 95°
2026-04-17 09:33 51.15007 1.59990 35039 ft 436 kts 95°
2026-04-17 09:33 51.14768 1.64840 35196 ft 438 kts 95°
2026-04-17 09:34 51.14265 1.74618 35172 ft 451 kts 96°
2026-04-17 09:34 51.13741 1.84729 35154 ft 465 kts 95°
2026-04-17 09:35 51.13300 1.95130 35173 ft 479 kts 95°
2026-04-17 09:35 51.12769 2.05792 35181 ft 494 kts 96°
2026-04-17 09:36 51.12097 2.16819 35174 ft 509 kts 96°
2026-04-17 09:36 51.11472 2.28093 35163 ft 515 kts 95°
2026-04-17 09:37 51.10844 2.39410 35166 ft 514 kts 95°
2026-04-17 09:37 51.10228 2.50652 35176 ft 512 kts 95°
2026-04-17 09:38 51.09562 2.61912 35184 ft 512 kts 98°
2026-04-17 09:38 51.08143 2.72903 35187 ft 511 kts 107°
2026-04-17 09:39 51.06055 2.83711 35193 ft 511 kts 109°
2026-04-17 09:39 51.03995 2.94458 35195 ft 512 kts 107°
2026-04-17 09:40 51.02006 3.05300 35199 ft 512 kts 107°
2026-04-17 09:40 50.99991 3.16066 35203 ft 512 kts 107°
2026-04-17 09:41 50.97970 3.26886 35207 ft 511 kts 107°
2026-04-17 09:41 50.95966 3.37692 35208 ft 511 kts 107°
2026-04-17 09:42 50.93985 3.48482 35210 ft 510 kts 106°
2026-04-17 09:42 50.91696 3.61013 35213 ft 510 kts 106°
2026-04-17 09:43 50.90011 3.69924 35208 ft 509 kts 109°
2026-04-17 09:43 50.87794 3.80568 35209 ft 508 kts 108°
2026-04-17 09:44 50.85663 3.91210 35208 ft 509 kts 108°
2026-04-17 09:44 50.83548 4.01925 35208 ft 508 kts 107°
2026-04-17 09:45 50.81457 4.12557 35212 ft 508 kts 107°
2026-04-17 09:45 50.79373 4.23183 35212 ft 508 kts 107°
2026-04-17 09:46 50.77298 4.33812 35217 ft 508 kts 107°
2026-04-17 09:46 50.75236 4.44420 35219 ft 508 kts 107°
2026-04-17 09:47 50.73181 4.55044 35218 ft 507 kts 106°
2026-04-17 09:47 50.71122 4.65624 35217 ft 507 kts 108°
2026-04-17 09:48 50.69019 4.76282 35213 ft 506 kts 107°
2026-04-17 09:48 50.66986 4.86876 35215 ft 507 kts 107°
2026-04-17 09:49 50.64908 4.97416 35213 ft 506 kts 109°
2026-04-17 09:49 50.62627 5.07861 35219 ft 506 kts 108°
2026-04-17 09:50 50.60424 5.18368 35225 ft 505 kts 107°
2026-04-17 09:50 50.57898 5.30584 35214 ft 503 kts 107°
2026-04-17 09:51 50.56108 5.39254 35244 ft 498 kts 107°
2026-04-17 09:51 50.53980 5.49610 35252 ft 503 kts 107°
2026-04-17 09:52 50.51822 5.60156 35059 ft 506 kts 107°
2026-04-17 09:52 50.50747 5.65433 34278 ft 511 kts 107°
2026-04-17 09:52 50.49709 5.70708 33335 ft 515 kts 106°
2026-04-17 09:53 50.48676 5.76102 32392 ft 517 kts 106°
2026-04-17 09:53 50.47659 5.81477 31943 ft 509 kts 106°
2026-04-17 09:53 50.46652 5.86807 30900 ft 514 kts 105°
2026-04-17 09:53 50.45645 5.92139 30221 ft 510 kts 105°
2026-04-17 09:54 50.44640 5.97483 29217 ft 513 kts 105°
2026-04-17 09:54 50.43637 6.02813 28381 ft 512 kts 106°
2026-04-17 09:54 50.42636 6.08149 27377 ft 514 kts 106°
2026-04-17 09:54 50.41631 6.13504 26402 ft 515 kts 106°
2026-04-17 09:55 50.40633 6.18841 25473 ft 514 kts 106°
2026-04-17 09:55 50.39305 6.25954 24348 ft 510 kts 106°
2026-04-17 09:55 50.38311 6.31290 23554 ft 506 kts 106°
2026-04-17 09:55 50.37667 6.34751 23045 ft 503 kts 106°
2026-04-17 09:56 50.36683 6.39987 22283 ft 498 kts 106°
2026-04-17 09:56 50.35794 6.45120 21526 ft 493 kts 101°
2026-04-17 09:56 50.35337 6.50390 20837 ft 486 kts 94°
2026-04-17 09:56 50.35064 6.55575 20601 ft 478 kts 94°
2026-04-17 09:57 50.34727 6.62443 20249 ft 472 kts 94°
2026-04-17 09:57 50.34573 6.65832 20088 ft 469 kts 94°
2026-04-17 09:57 50.34352 6.70926 19856 ft 466 kts 94°
2026-04-17 09:57 50.34050 6.77661 19672 ft 462 kts 95°
2026-04-17 09:58 50.33824 6.80920 19696 ft 462 kts 98°
2026-04-17 09:58 50.33208 6.85914 19691 ft 463 kts 105°
2026-04-17 09:58 50.32236 6.90630 19686 ft 463 kts 112°
2026-04-17 09:58 50.30924 6.95236 19683 ft 464 kts 116°
2026-04-17 09:59 50.29027 7.01238 19665 ft 464 kts 117°
2026-04-17 09:59 50.28076 7.04252 19298 ft 465 kts 117°
2026-04-17 09:59 50.26222 7.10286 18576 ft 458 kts 116°
2026-04-17 09:59 50.25326 7.13273 18212 ft 454 kts 115°
2026-04-17 10:00 50.24014 7.17685 17704 ft 449 kts 115°
2026-04-17 10:00 50.22281 7.23532 17052 ft 446 kts 115°
2026-04-17 10:00 50.21419 7.26442 16722 ft 444 kts 115°
2026-04-17 10:00 50.20134 7.30781 16229 ft 442 kts 115°
2026-04-17 10:01 50.18922 7.35164 15740 ft 439 kts 111°
2026-04-17 10:01 50.17845 7.39577 15276 ft 436 kts 110°
2026-04-17 10:01 50.16821 7.43964 14776 ft 432 kts 110°
2026-04-17 10:01 50.15797 7.48355 14341 ft 429 kts 110°
2026-04-17 10:02 50.14768 7.52725 13863 ft 426 kts 110°
2026-04-17 10:02 50.13752 7.57001 13414 ft 423 kts 110°
2026-04-17 10:02 50.12732 7.61279 12950 ft 420 kts 110°
2026-04-17 10:02 50.11712 7.65467 12504 ft 416 kts 113°
2026-04-17 10:03 50.10463 7.69547 12209 ft 415 kts 120°
2026-04-17 10:03 50.08408 7.74501 11846 ft 405 kts 126°
2026-04-17 10:03 50.06776 7.78006 11547 ft 395 kts 126°
2026-04-17 10:03 50.05204 7.81422 11329 ft 382 kts 126°
2026-04-17 10:04 50.04211 7.83632 11276 ft 372 kts 125°
2026-04-17 10:04 50.02312 7.87924 11243 ft 351 kts 125°
2026-04-17 10:04 50.01394 7.90015 11231 ft 341 kts 124°
2026-04-17 10:04 50.00084 7.94299 11201 ft 324 kts 104°
2026-04-17 10:05 49.99867 7.96564 11206 ft 317 kts 90°
2026-04-17 10:05 50.00172 7.99904 11213 ft 309 kts 72°
2026-04-17 10:05 50.00893 8.02980 11182 ft 303 kts 66°
2026-04-17 10:05 50.02029 8.06934 11189 ft 296 kts 65°
2026-04-17 10:06 50.02586 8.08872 11196 ft 294 kts 66°
2026-04-17 10:06 50.03377 8.11767 11190 ft 293 kts 67°
2026-04-17 10:06 50.04129 8.14725 11071 ft 293 kts 68°
2026-04-17 10:06 50.04850 8.17713 10760 ft 297 kts 69°
2026-04-17 10:07 50.05567 8.20721 10626 ft 294 kts 69°
2026-04-17 10:07 50.06280 8.23660 10384 ft 290 kts 68°
2026-04-17 10:07 50.07003 8.26593 10067 ft 289 kts 68°
2026-04-17 10:07 50.07711 8.29462 9740 ft 288 kts 68°
2026-04-17 10:08 50.08424 8.32375 9407 ft 287 kts 69°
2026-04-17 10:08 50.09357 8.36229 8994 ft 285 kts 69°
2026-04-17 10:08 50.10050 8.39094 8689 ft 284 kts 69°
2026-04-17 10:08 50.10511 8.41021 8527 ft 285 kts 69°
2026-04-17 10:09 50.11422 8.44861 8240 ft 285 kts 70°
2026-04-17 10:09 50.12106 8.47739 8039 ft 281 kts 69°
2026-04-17 10:09 50.12551 8.49614 7895 ft 278 kts 69°
2026-04-17 10:09 50.13609 8.53249 7473 ft 274 kts 65°
2026-04-17 10:10 50.14123 8.55051 7262 ft 274 kts 67°
2026-04-17 10:10 50.15024 8.58741 7235 ft 274 kts 72°
2026-04-17 10:10 50.15572 8.61573 7236 ft 273 kts 73°
2026-04-17 10:11 50.16462 8.66069 7161 ft 245 kts 72°
2026-04-17 10:11 50.17182 8.69305 7169 ft 231 kts 70°
2026-04-17 10:11 50.17562 8.70856 7183 ft 226 kts 69°
2026-04-17 10:11 50.18322 8.73828 6827 ft 225 kts 69°
2026-04-17 10:12 50.18705 8.75339 6519 ft 226 kts 70°
2026-04-17 10:12 50.19264 8.77599 6197 ft 224 kts 70°
2026-04-17 10:12 50.19799 8.79829 5857 ft 219 kts 71°
2026-04-17 10:12 50.20311 8.82038 5425 ft 216 kts 71°
2026-04-17 10:13 50.20980 8.85002 4843 ft 215 kts 75°
2026-04-17 10:13 50.21278 8.86466 4563 ft 214 kts 72°
2026-04-17 10:13 50.21777 8.88619 4186 ft 213 kts 70°
2026-04-17 10:13 50.22268 8.90810 4140 ft 215 kts 81°
2026-04-17 10:14 50.22069 8.93007 4184 ft 204 kts 121°
2026-04-17 10:14 50.20714 8.95089 4237 ft 211 kts 140°
2026-04-17 10:14 50.19976 8.96097 4191 ft 210 kts 137°
2026-04-17 10:14 50.18917 8.97695 4193 ft 211 kts 135°
2026-04-17 10:15 50.17547 8.99893 4195 ft 211 kts 134°
2026-04-17 10:15 50.16811 9.00867 4124 ft 212 kts 152°
2026-04-17 10:15 50.14946 9.01059 4260 ft 208 kts 202°
2026-04-17 10:15 50.13839 8.99731 4237 ft 200 kts 234°
2026-04-17 10:16 50.13386 8.98500 4217 ft 195 kts 245°
2026-04-17 10:16 50.12756 8.95867 4198 ft 193 kts 250°
2026-04-17 10:16 50.12327 8.93892 4203 ft 194 kts 253°
2026-04-17 10:16 50.12078 8.92543 4234 ft 193 kts 253°
2026-04-17 10:17 50.11693 8.90495 4224 ft 197 kts 251°
2026-04-17 10:17 50.11247 8.88507 4220 ft 193 kts 248°
2026-04-17 10:17 50.10598 8.85936 3938 ft 192 kts 247°
2026-04-17 10:17 50.10263 8.84623 3750 ft 192 kts 248°
2026-04-17 10:18 50.09778 8.82704 3513 ft 191 kts 248°
2026-04-17 10:18 50.09312 8.80796 3268 ft 189 kts 249°
2026-04-17 10:18 50.08851 8.78872 3032 ft 190 kts 249°
2026-04-17 10:18 50.08391 8.76939 2777 ft 189 kts 249°
2026-04-17 10:19 50.07799 8.74462 2425 ft 175 kts 249°
2026-04-17 10:19 50.07524 8.73314 2306 ft 169 kts 249°
2026-04-17 10:19 50.06977 8.71047 2019 ft 167 kts 248°
2026-04-17 10:19 50.06564 8.69367 1809 ft 166 kts 249°
2026-04-17 10:20 50.06296 8.68255 1663 ft 167 kts 249°
2026-04-17 10:20 50.05761 8.66002 1367 ft 166 kts 249°
2026-04-17 10:20 50.05359 8.64307 1145 ft 166 kts 249°
2026-04-17 10:20 50.04964 8.62645 932 ft 164 kts 249°
2026-04-17 10:21 50.04700 8.61534 802 ft 163 kts 249°
2026-04-17 10:21 50.04313 8.59869 597 ft 165 kts 250°
2026-04-17 10:21 50.03912 8.58274 373 ft 156 kts 250°
2026-04-17 10:21 50.03523 8.56633 347 ft 70 kts 249°
2026-04-17 10:22 50.03429 8.56123 344 ft 31 kts 276°
2026-04-17 10:22 50.03458 8.55893 343 ft 30 kts 280°
2026-04-17 10:22 50.03479 8.55681 343 ft 0 kts 279°
2026-04-17 10:22 50.03479 8.55678 343 ft 0 kts 279°
2026-04-17 10:23 50.03479 8.55677 343 ft 0 kts 279°
2026-04-17 10:23 50.03479 8.55671 343 ft 2 kts 279°
2026-04-17 10:23 50.03481 8.55652 343 ft 0 kts 278°
2026-04-17 10:24 50.03483 8.55637 343 ft 2 kts 278°
2026-04-17 10:24 50.03488 8.55587 343 ft 8 kts 286°
2026-04-17 10:24 50.03534 8.55518 344 ft 8 kts 345°
2026-04-17 10:24 50.03567 8.55515 345 ft 0 kts
2026-04-17 10:25 50.03603 8.55520 345 ft 9 kts
2026-04-17 10:25 50.03694 8.55541 348 ft 15 kts 10°
2026-04-17 10:25 50.03805 8.55540 352 ft 16 kts 341°
2026-04-17 10:25 50.03925 8.55495 355 ft 19 kts 24°
2026-04-17 10:26 50.03991 8.55696 356 ft 23 kts 71°
2026-04-17 10:26 50.04052 8.55960 358 ft 26 kts 68°
2026-04-17 10:26 50.04118 8.56235 361 ft 27 kts 70°
2026-04-17 10:26 50.04186 8.56516 364 ft 28 kts 71°
2026-04-17 10:27 50.04241 8.56754 368 ft 11 kts 65°
2026-04-17 10:27 50.04298 8.56813 371 ft 9 kts 15°
2026-04-17 10:27 50.04364 8.56832 373 ft 9 kts 10°
2026-04-17 10:27 50.04435 8.56851 375 ft 10 kts 10°
2026-04-17 10:28 50.04499 8.56869 376 ft 2 kts 14°
2026-04-17 10:28 50.04521 8.56883 377 ft 3 kts 29°
2026-04-17 10:28 50.04545 8.56915 377 ft 5 kts 51°
2026-04-17 10:28 50.04567 8.56972 377 ft 7 kts 66°
2026-04-17 10:29 50.04584 8.57026 378 ft 5 kts 60°
2026-04-17 10:29 50.04593 8.57048 378 ft 0 kts 59°
2026-04-17 10:29 50.04595 8.57055 378 ft 0 kts 59°
2026-04-17 10:29 50.04597 8.57061 378 ft 0 kts 59°
2026-04-17 10:30 50.04598 8.57062 378 ft 0 kts 59°